Time,TemperatureF,DewpointF,PressureIn,WindDirection,WindDirectionDegrees,WindSpeedMPH,WindSpeedGustMPH,Humidity,HourlyPrecipIn,Conditions,Clouds,dailyrainin,SoftwareType,DateUTC
2013-06-13 00:01:00,74.0,64.0,30.01,SSE,162,2.0,11.0,71,0.00,,,0.00,,2013-06-13 04:01:00,
2013-06-13 00:12:00,74.0,64.0,30.01,SSE,167,3.0,9.0,72,0.00,,,0.00,,2013-06-13 04:12:00,
2013-06-13 00:22:00,74.0,64.0,30.01,SSE,167,3.0,9.0,72,0.00,,,0.00,,2013-06-13 04:22:00,
2013-06-13 00:32:00,73.0,63.0,30.01,South,169,4.0,12.0,70,0.00,,,0.00,,2013-06-13 04:32:00,
2013-06-13 00:43:00,73.0,63.0,30.01,South,169,4.0,12.0,70,0.00,,,0.00,,2013-06-13 04:43:00,
2013-06-13 00:53:00,73.0,61.0,30.00,SSE,165,3.0,9.0,66,0.00,,,0.00,,2013-06-13 04:53:00,
2013-06-13 01:02:00,73.0,61.0,30.00,SSE,165,3.0,9.0,66,0.00,,,0.00,,2013-06-13 05:02:00,
2013-06-13 01:12:00,73.0,61.0,30.00,SSE,158,3.0,13.0,65,0.00,,,0.00,,2013-06-13 05:12:00,
2013-06-13 01:24:00,73.0,60.0,29.99,SSE,167,3.0,13.0,64,0.00,,,0.00,,2013-06-13 05:24:00,
2013-06-13 01:33:00,73.0,60.0,29.99,SSE,167,3.0,13.0,64,0.00,,,0.00,,2013-06-13 05:33:00,
2013-06-13 01:43:00,73.0,61.0,29.99,SSE,165,3.0,14.0,65,0.00,,,0.00,,2013-06-13 05:43:00,
2013-06-13 01:53:00,73.0,61.0,29.99,SSE,165,3.0,14.0,65,0.00,,,0.00,,2013-06-13 05:53:00,
2013-06-13 02:02:00,73.0,60.0,29.99,South,169,2.0,12.0,63,0.00,,,0.00,,2013-06-13 06:02:00,
2013-06-13 02:11:00,73.0,60.0,29.98,SSE,165,3.0,9.0,64,0.00,,,0.00,,2013-06-13 06:11:00,
2013-06-13 02:22:00,73.0,60.0,29.99,SSE,163,4.0,14.0,64,0.00,,,0.00,,2013-06-13 06:22:00,
2013-06-13 02:33:00,73.0,60.0,29.99,SSE,163,4.0,14.0,64,0.00,,,0.00,,2013-06-13 06:33:00,
2013-06-13 02:44:00,73.0,60.0,29.98,SSE,167,3.0,13.0,63,0.00,,,0.00,,2013-06-13 06:44:00,
2013-06-13 02:52:00,73.0,60.0,29.98,SSE,167,3.0,13.0,63,0.00,,,0.00,,2013-06-13 06:52:00,
2013-06-13 03:01:00,73.0,60.0,29.98,South,169,2.0,13.0,64,0.00,,,0.00,,2013-06-13 07:01:00,
2013-06-13 03:12:00,73.0,60.0,29.98,SSE,162,3.0,9.0,64,0.00,,,0.00,,2013-06-13 07:12:00,
2013-06-13 03:22:00,73.0,59.0,29.98,SSE,167,3.0,13.0,62,0.00,,,0.00,,2013-06-13 07:22:00,
2013-06-13 03:33:00,73.0,59.0,29.98,SSE,167,3.0,13.0,62,0.00,,,0.00,,2013-06-13 07:33:00,
2013-06-13 03:42:00,73.0,59.0,29.97,South,169,3.0,13.0,61,0.00,,,0.00,,2013-06-13 07:42:00,
2013-06-13 03:52:00,73.0,59.0,29.97,South,169,2.0,11.0,61,0.00,,,0.00,,2013-06-13 07:52:00,
2013-06-13 04:01:00,73.0,59.0,29.97,South,169,2.0,11.0,61,0.00,,,0.00,,2013-06-13 08:01:00,
2013-06-13 04:43:00,72.0,58.0,29.95,SSE,167,3.0,15.0,61,0.00,,,0.00,,2013-06-13 08:43:00,
2013-06-13 04:52:00,72.0,58.0,29.95,SSE,167,3.0,15.0,61,0.00,,,0.00,,2013-06-13 08:52:00,
2013-06-13 05:02:00,72.0,58.0,29.95,SSE,167,3.0,15.0,61,0.00,,,0.00,,2013-06-13 09:02:00,
2013-06-13 05:12:00,72.0,57.0,29.94,SSE,156,4.0,15.0,60,0.00,,,0.00,,2013-06-13 09:12:00,
2013-06-13 05:22:00,72.0,58.0,29.94,South,169,3.0,12.0,61,0.00,,,0.00,,2013-06-13 09:22:00,
2013-06-13 05:32:00,72.0,58.0,29.94,South,169,3.0,12.0,61,0.00,,,0.00,,2013-06-13 09:32:00,
2013-06-13 05:42:00,71.0,58.0,29.94,SSE,165,3.0,11.0,63,0.00,,,0.00,,2013-06-13 09:42:00,
2013-06-13 05:52:00,71.0,58.0,29.94,SSE,165,3.0,11.0,63,0.00,,,0.00,,2013-06-13 09:52:00,
2013-06-13 06:01:00,71.0,58.0,29.94,SSE,165,3.0,11.0,63,0.00,,,0.00,,2013-06-13 10:01:00,
2013-06-13 06:12:00,71.0,59.0,29.93,SSE,165,4.0,15.0,65,0.00,,,0.00,,2013-06-13 10:12:00,
2013-06-13 06:22:00,71.0,59.0,29.92,SSE,167,3.0,14.0,67,0.00,,,0.00,,2013-06-13 10:22:00,
2013-06-13 06:33:00,71.0,59.0,29.92,SSE,167,3.0,14.0,67,0.00,,,0.00,,2013-06-13 10:33:00,
2013-06-13 06:43:00,71.0,59.0,29.92,SSE,167,3.0,14.0,67,0.00,,,0.00,,2013-06-13 10:43:00,
2013-06-13 06:53:00,71.0,59.0,29.92,SSE,167,3.0,14.0,67,0.00,,,0.00,,2013-06-13 10:53:00,
2013-06-13 07:02:00,71.0,59.0,29.92,SSE,167,3.0,14.0,67,0.00,,,0.00,,2013-06-13 11:02:00,
2013-06-13 07:24:00,73.0,60.0,29.93,SSE,167,3.0,16.0,64,0.00,,,0.00,,2013-06-13 11:24:00,
2013-06-13 07:32:00,73.0,60.0,29.93,SSE,167,3.0,16.0,64,0.00,,,0.00,,2013-06-13 11:32:00,
2013-06-13 07:42:00,73.0,60.0,29.92,SSE,163,5.0,15.0,63,0.00,,,0.00,,2013-06-13 11:42:00,
2013-06-13 07:52:00,73.0,60.0,29.92,SSE,163,5.0,15.0,63,0.00,,,0.00,,2013-06-13 11:52:00,
2013-06-13 08:01:00,73.0,61.0,29.92,SSE,167,3.0,17.0,65,0.00,,,0.00,,2013-06-13 12:01:00,
2013-06-13 08:12:00,73.0,61.0,29.92,SSE,167,3.0,17.0,65,0.00,,,0.00,,2013-06-13 12:12:00,
2013-06-13 08:22:00,73.0,61.0,29.92,SSE,167,5.0,14.0,65,0.00,,,0.00,,2013-06-13 12:22:00,
2013-06-13 08:35:00,73.0,61.0,29.92,SSE,167,5.0,14.0,65,0.00,,,0.00,,2013-06-13 12:35:00,
2013-06-13 08:43:00,73.0,61.0,29.92,SSE,163,4.0,13.0,65,0.00,,,0.00,,2013-06-13 12:43:00,
2013-06-13 08:52:00,73.0,61.0,29.92,SSE,163,4.0,13.0,65,0.00,,,0.00,,2013-06-13 12:52:00,
2013-06-13 09:01:00,73.0,61.0,29.92,SSE,163,4.0,13.0,65,0.00,,,0.00,,2013-06-13 13:01:00,
2013-06-13 09:11:00,75.0,64.0,29.92,SSE,166,2.0,9.0,68,0.00,,,0.00,,2013-06-13 13:11:00,
2013-06-13 09:22:00,75.0,63.0,29.91,SSE,167,5.0,13.0,67,0.00,,,0.00,,2013-06-13 13:22:00,
2013-06-13 09:33:00,75.0,63.0,29.91,SSE,167,5.0,13.0,67,0.00,,,0.00,,2013-06-13 13:33:00,
2013-06-13 09:43:00,76.0,64.0,29.92,SSE,167,3.0,13.0,67,0.00,,,0.00,,2013-06-13 13:43:00,
2013-06-13 09:53:00,76.0,64.0,29.92,SSE,167,3.0,13.0,67,0.00,,,0.00,,2013-06-13 13:53:00,
2013-06-13 10:02:00,76.0,64.0,29.91,SSE,162,3.0,15.0,66,0.00,,,0.00,,2013-06-13 14:02:00,
2013-06-13 10:11:00,76.0,64.0,29.90,South,170,4.0,14.0,66,0.00,,,0.00,,2013-06-13 14:11:00,
2013-06-13 10:22:00,76.0,64.0,29.90,South,170,4.0,14.0,66,0.00,,,0.00,,2013-06-13 14:22:00,
2013-06-13 10:33:00,76.0,64.0,29.89,SSE,163,4.0,13.0,66,0.00,,,0.00,,2013-06-13 14:33:00,
2013-06-13 10:43:00,76.0,63.0,29.88,South,169,4.0,14.0,64,0.00,,,0.00,,2013-06-13 14:43:00,
2013-06-13 10:53:00,76.0,63.0,29.88,South,169,4.0,14.0,64,0.00,,,0.00,,2013-06-13 14:53:00,
2013-06-13 11:02:00,77.0,64.0,29.88,South,171,3.0,12.0,65,0.00,,,0.00,,2013-06-13 15:02:00,
2013-06-13 11:12:00,77.0,63.0,29.88,SSE,167,5.0,13.0,62,0.00,,,0.00,,2013-06-13 15:12:00,
2013-06-13 11:22:00,77.0,63.0,29.88,SSE,166,2.0,15.0,62,0.00,,,0.00,,2013-06-13 15:22:00,
2013-06-13 11:33:00,77.0,63.0,29.88,SSE,166,2.0,15.0,62,0.00,,,0.00,,2013-06-13 15:33:00,
2013-06-13 11:43:00,77.0,63.0,29.88,SSE,166,2.0,15.0,62,0.00,,,0.00,,2013-06-13 15:43:00,
2013-06-13 11:53:00,79.0,64.0,29.88,SSE,163,4.0,9.0,60,0.00,,,0.00,,2013-06-13 15:53:00,
2013-06-13 12:02:00,79.0,64.0,29.88,SSE,163,4.0,9.0,60,0.00,,,0.00,,2013-06-13 16:02:00,
2013-06-13 12:12:00,80.0,64.0,29.88,SSE,167,3.0,12.0,59,0.00,,,0.00,,2013-06-13 16:12:00,
2013-06-13 12:22:00,81.0,64.0,29.88,SSE,166,4.0,12.0,56,0.00,,,0.00,,2013-06-13 16:22:00,
2013-06-13 12:33:00,81.0,64.0,29.88,SSE,166,4.0,12.0,56,0.00,,,0.00,,2013-06-13 16:33:00,
2013-06-13 12:43:00,81.0,63.0,29.87,South,169,3.0,12.0,55,0.00,,,0.00,,2013-06-13 16:43:00,
2013-06-13 12:53:00,81.0,63.0,29.87,South,169,3.0,12.0,55,0.00,,,0.00,,2013-06-13 16:53:00,
2013-06-13 13:02:00,82.0,62.0,29.86,SSE,164,3.0,12.0,51,0.00,,,0.00,,2013-06-13 17:02:00,
2013-06-13 13:11:00,82.0,62.0,29.86,SSE,164,3.0,12.0,51,0.00,,,0.00,,2013-06-13 17:11:00,
2013-06-13 13:24:00,82.0,63.0,29.86,SSE,165,4.0,15.0,53,0.00,,,0.00,,2013-06-13 17:24:00,
2013-06-13 13:33:00,83.0,63.0,29.86,SSE,167,3.0,15.0,51,0.00,,,0.00,,2013-06-13 17:33:00,
2013-06-13 13:43:00,83.0,64.0,29.86,NNE,15,4.0,12.0,52,0.00,,,0.00,,2013-06-13 17:43:00,
2013-06-13 13:53:00,83.0,64.0,29.86,NNE,15,4.0,12.0,52,0.00,,,0.00,,2013-06-13 17:53:00,
2013-06-13 14:02:00,85.0,65.0,29.86,SE,144,3.0,12.0,51,0.00,,,0.00,,2013-06-13 18:02:00,
2013-06-13 14:11:00,85.0,66.0,29.85,SE,138,1.0,9.0,54,0.00,,,0.00,,2013-06-13 18:11:00,
2013-06-13 14:22:00,85.0,66.0,29.85,SE,138,1.0,9.0,54,0.00,,,0.00,,2013-06-13 18:22:00,
2013-06-13 14:33:00,83.0,62.0,29.85,SE,131,7.0,13.0,50,0.00,,,0.00,,2013-06-13 18:33:00,
2013-06-13 14:43:00,83.0,65.0,29.85,SE,146,2.0,9.0,54,0.00,,,0.00,,2013-06-13 18:43:00,
2013-06-13 14:52:00,83.0,65.0,29.85,SE,146,2.0,9.0,54,0.00,,,0.00,,2013-06-13 18:52:00,
2013-06-13 15:01:00,83.0,68.0,29.84,SE,135,0.0,7.0,60,0.00,,,0.00,,2013-06-13 19:01:00,
2013-06-13 15:11:00,82.0,64.0,29.83,SE,124,4.0,13.0,55,0.00,,,0.00,,2013-06-13 19:11:00,
2013-06-13 15:22:00,82.0,64.0,29.83,SE,124,4.0,13.0,55,0.00,,,0.00,,2013-06-13 19:22:00,
2013-06-13 15:33:00,79.0,63.0,29.85,ESE,113,1.0,10.0,59,0.00,,,0.00,,2013-06-13 19:33:00,
2013-06-13 15:43:00,75.0,66.0,29.86,South,172,3.0,13.0,74,0.09,,,0.09,,2013-06-13 19:43:00,
2013-06-13 15:53:00,75.0,66.0,29.86,South,172,3.0,13.0,74,0.09,,,0.09,,2013-06-13 19:53:00,
2013-06-13 16:02:00,69.0,63.0,29.84,ESE,107,4.0,10.0,82,0.21,,,0.21,,2013-06-13 20:02:00,
2013-06-13 16:11:00,69.0,65.0,29.85,SSE,149,2.0,8.0,86,0.21,,,0.21,,2013-06-13 20:11:00,
2013-06-13 16:22:00,69.0,65.0,29.85,SSE,149,2.0,8.0,86,0.21,,,0.21,,2013-06-13 20:22:00,
2013-06-13 16:33:00,70.0,65.0,29.85,SE,131,2.0,11.0,84,0.21,,,0.21,,2013-06-13 20:33:00,
2013-06-13 16:44:00,70.0,65.0,29.85,SE,131,2.0,11.0,84,0.21,,,0.21,,2013-06-13 20:44:00,
2013-06-13 16:53:00,71.0,65.0,29.85,SE,131,4.0,11.0,81,0.09,,,0.21,,2013-06-13 20:53:00,
2013-06-13 17:02:00,70.0,64.0,29.84,SE,129,2.0,11.0,81,0.00,,,0.21,,2013-06-13 21:02:00,
2013-06-13 17:11:00,69.0,63.0,29.85,SE,132,3.0,7.0,82,0.00,,,0.21,,2013-06-13 21:11:00,
2013-06-13 17:22:00,69.0,63.0,29.85,SE,132,3.0,7.0,82,0.00,,,0.21,,2013-06-13 21:22:00,
2013-06-13 17:34:00,68.0,64.0,29.85,ESE,123,3.0,12.0,86,0.03,,,0.24,,2013-06-13 21:34:00,
2013-06-13 17:43:00,66.0,62.0,29.84,SSE,149,1.0,7.0,87,0.03,,,0.24,,2013-06-13 21:43:00,
2013-06-13 17:52:00,66.0,62.0,29.84,SSE,149,1.0,7.0,87,0.03,,,0.24,,2013-06-13 21:52:00,
2013-06-13 18:02:00,65.0,60.0,29.84,ESE,104,4.0,13.0,85,0.03,,,0.24,,2013-06-13 22:02:00,
2013-06-13 18:11:00,65.0,60.0,29.84,SE,141,4.0,22.0,84,0.03,,,0.24,,2013-06-13 22:11:00,
2013-06-13 18:22:00,65.0,60.0,29.84,SE,141,4.0,22.0,84,0.03,,,0.24,,2013-06-13 22:22:00,
2013-06-13 18:33:00,65.0,61.0,29.83,SSE,150,5.0,15.0,86,0.00,,,0.24,,2013-06-13 22:33:00,
2013-06-13 18:43:00,64.0,60.0,29.80,SE,145,4.0,14.0,86,0.00,,,0.24,,2013-06-13 22:43:00,
2013-06-13 18:52:00,64.0,60.0,29.80,SE,145,4.0,14.0,86,0.00,,,0.24,,2013-06-13 22:52:00,
2013-06-13 19:02:00,64.0,60.0,29.80,ESE,119,5.0,14.0,86,0.00,,,0.24,,2013-06-13 23:02:00,
2013-06-13 19:11:00,64.0,60.0,29.81,SSE,149,4.0,14.0,87,0.00,,,0.24,,2013-06-13 23:11:00,
2013-06-13 19:22:00,64.0,60.0,29.81,SSE,149,4.0,14.0,87,0.00,,,0.24,,2013-06-13 23:22:00,
2013-06-13 19:32:00,65.0,61.0,29.83,SSE,155,2.0,9.0,86,0.00,,,0.24,,2013-06-13 23:32:00,
2013-06-13 19:43:00,65.0,60.0,29.83,SSE,160,2.0,11.0,85,0.00,,,0.24,,2013-06-13 23:43:00,
2013-06-13 19:52:00,65.0,60.0,29.83,SSE,160,2.0,11.0,85,0.00,,,0.24,,2013-06-13 23:52:00,
2013-06-13 20:01:00,65.0,60.0,29.83,South,170,3.0,13.0,85,0.00,,,0.24,,2013-06-14 00:01:00,
2013-06-13 20:12:00,65.0,60.0,29.83,South,170,3.0,13.0,85,0.00,,,0.24,,2013-06-14 00:12:00,
2013-06-13 20:22:00,65.0,60.0,29.83,SSE,165,3.0,9.0,85,0.00,,,0.24,,2013-06-14 00:22:00,
2013-06-13 20:34:00,65.0,60.0,29.84,South,174,1.0,7.0,85,0.00,,,0.24,,2013-06-14 00:34:00,
2013-06-13 20:43:00,65.0,60.0,29.84,SSE,153,2.0,8.0,83,0.00,,,0.24,,2013-06-14 00:43:00,
2013-06-13 20:53:00,65.0,60.0,29.84,SSE,153,2.0,8.0,83,0.00,,,0.24,,2013-06-14 00:53:00,
2013-06-13 21:01:00,65.0,60.0,29.85,SSE,155,1.0,6.0,84,0.00,,,0.24,,2013-06-14 01:01:00,
2013-06-13 21:11:00,65.0,60.0,29.85,SSE,155,1.0,6.0,84,0.00,,,0.24,,2013-06-14 01:11:00,
2013-06-13 21:22:00,65.0,60.0,29.85,SE,146,2.0,6.0,84,0.00,,,0.24,,2013-06-14 01:22:00,
2013-06-13 21:33:00,65.0,60.0,29.85,SE,128,2.0,12.0,83,0.00,,,0.24,,2013-06-14 01:33:00,
2013-06-13 21:43:00,64.0,59.0,29.85,SE,127,1.0,8.0,84,0.00,,,0.24,,2013-06-14 01:43:00,
2013-06-13 21:52:00,64.0,59.0,29.85,SE,127,1.0,8.0,84,0.00,,,0.24,,2013-06-14 01:52:00,
2013-06-13 22:02:00,64.0,59.0,29.87,SE,127,0.0,8.0,85,0.00,,,0.24,,2013-06-14 02:02:00,
2013-06-13 22:11:00,64.0,60.0,29.86,SE,127,1.0,5.0,86,0.00,,,0.24,,2013-06-14 02:11:00,
2013-06-13 22:22:00,64.0,60.0,29.86,SE,127,1.0,5.0,86,0.00,,,0.24,,2013-06-14 02:22:00,
2013-06-13 22:32:00,64.0,59.0,29.87,SE,132,2.0,6.0,85,0.00,,,0.24,,2013-06-14 02:32:00,
2013-06-13 22:43:00,64.0,59.0,29.87,SE,132,2.0,6.0,85,0.00,,,0.24,,2013-06-14 02:43:00,
2013-06-13 22:52:00,64.0,60.0,29.88,SE,144,1.0,6.0,86,0.00,,,0.24,,2013-06-14 02:52:00,
2013-06-13 23:02:00,64.0,59.0,29.87,SE,144,0.0,4.0,85,0.00,,,0.24,,2013-06-14 03:02:00,
2013-06-13 23:12:00,64.0,60.0,29.87,SE,143,0.0,6.0,86,0.00,,,0.24,,2013-06-14 03:12:00,
2013-06-13 23:22:00,64.0,60.0,29.87,SE,143,0.0,6.0,86,0.00,,,0.24,,2013-06-14 03:22:00,
2013-06-13 23:34:00,65.0,60.0,29.88,SSE,150,0.0,6.0,85,0.00,,,0.24,,2013-06-14 03:34:00,
2013-06-13 23:43:00,65.0,60.0,29.88,SE,142,1.0,5.0,84,0.00,,,0.24,,2013-06-14 03:43:00,
2013-06-13 23:53:00,65.0,60.0,29.88,SE,142,1.0,5.0,84,0.00,,,0.24,,2013-06-14 03:53:00,